This demonstration page uses our WeatherBlox Daily Observations layout. Learn more.

Left ArrowRight Arrow

39.29038, -76.61219

Hourly Observations for August 4, 2020

Temp ( °F °C ) Dew Point ( °F °C ) Humidity (%) Winds ( mph kmh ) Pressure ( in mb ) Visibility ( mi km ) Precip ( " mm )
12:54 am 00:54 Cloudy with Light Rain 73 22.8 70 21.1 90 90 Calm 30.00 1016 7 11 0.01 0.25
1:54 am 01:54 Cloudy with Light Rain 73 22.8 70 21.1 90 90 S 3 6 29.98 1015 5 8 0.04 1.02
2:54 am 02:54 Cloudy with Light Rain 72 22.2 70 21.1 94 94 E 3 6 29.96 1015 6 10 0.10 2.54
3:54 am 03:54 Cloudy with Light Rain 72 22.2 70 21.1 94 94 Calm 29.94 1014 5 8 0.08 2.03
4:54 am 04:54 Cloudy with Rain 72 22.2 69 20.6 91 91 N 6 9 29.89 1012 3 5 0.18 4.57
5:54 am 05:54 Cloudy with Rain 72 22.2 70 21.1 94 94 N 8 13 29.85 1011 3 5 0.12 3.05
6:54 am 06:54 Cloudy with Light Rain 71 21.7 69 20.6 94 94 N 9 15 29.79 1009 3 5 0.17 4.32
7:54 am 07:54 Cloudy with Heavy Rain 70 21.1 68 20 93 93 N 12 19 29.72 1006 1 2 0.28 7.11
8:01 am 08:01 Cloudy with Heavy Rain 70 21.1 68 20 93 93 N 13 20 29.72 1006 1 2 0.04 1.02
8:18 am 08:18 Cloudy with Heavy Rain 70 21.1 68 20 93 93 N 13 20 29.71 1006 1 2 0.27 6.86
8:54 am 08:54 Cloudy with Heavy Rain 70 21.1 68 20 93 93 N 12 19 29.68 1005 1 2 0.66 16.76
9:54 am 09:54 Cloudy with Heavy Rain 70 21.1 67 19.4 90 90 NNW 24 39 29.62 1003 2 2 0.38 9.65
10:54 am 10:54 Cloudy with Rain 70 21.1 66 18.9 87 87 NNW 15 24 29.64 1004 3 4 0.24 6.10
11:21 am 11:21 Mostly Cloudy with Light Rain 70 21.1 66 18.9 87 87 NNW 10 17 29.64 1004 6 10 0.06 1.52
11:44 am 11:44 Cloudy 72 22.2 67 19.4 84 84 WSW 14 22 29.70 1006 10 16 0.06 1.52
11:51 am 11:51 Mostly Cloudy 72 22 68 20 88 88 W 13 20 29.70 1006 7 11 0.06 1.52
11:54 am 11:54 Mostly Cloudy 73 22.8 68 20 84 84 W 15 24 29.71 1006 7 11 0.06 1.52
12:54 pm 12:54 Mostly Cloudy 77 25 69 20.6 77 77 W 15 24 29.75 1007 10 16 0.00 0.00
1:54 pm 13:54 Partly Cloudy 79 26.1 70 21.1 74 74 WSW 12 19 29.79 1009 10 16 0.00 0.00
2:54 pm 14:54 Partly Cloudy 82 27.8 68 20 63 63 W 15 24 29.80 1009 10 16 0.00 0.00
3:54 pm 15:54 Mostly Cloudy 85 29.4 68 20 57 57 WSW 10 17 29.81 1009 10 16 0.00 0.00
4:54 pm 16:54 Partly Cloudy 85 29.4 68 20 57 57 SW 8 13 29.83 1010 10 16 0.00 0.00
5:54 pm 17:54 Partly Cloudy 85 29.4 69 20.6 59 59 S 5 7 29.83 1010 10 16 0.00 0.00
6:54 pm 18:54 Partly Cloudy 84 28.9 71 21.7 65 65 VRB 6 9 29.84 1011 10 16 0.00 0.00
7:16 pm 19:16 Partly Cloudy 82 27.8 70 21.1 67 67 SSE 6 9 29.84 1011 10 16 0.00 0.00
7:54 pm 19:54 Partly Cloudy 81 27.2 71 21.7 72 72 Calm 29.87 1011 10 16 0.00 0.00
8:54 pm 20:54 Mostly Cloudy 80 26.7 70 21.1 71 71 SSW 6 9 29.89 1012 10 16 0.00 0.00
9:35 pm 21:35 Mostly Cloudy with Thunderstorms 75 23.9 69 20.6 82 82 SSW 9 15 29.91 1013 10 16 0.00 0.00
9:54 pm 21:54 Mostly Cloudy 73 22.8 68 20 84 84 SSW 9 15 29.92 1013 10 16 0.01 0.25
10:54 pm 22:54 Mostly Cloudy 73 22.8 68 20 84 84 S 7 11 29.93 1014 10 16 0.00 0.00
11:54 pm 23:54 Partly Cloudy 73 22.8 69 20.6 87 87 W 3 6 29.93 1014 10 16 0.00 0.00

Powered by AerisWeather